ALGONAWA Weather Reports


time (UTC)temp
C
wind
direction
speed
KPH
gust
KPH
rain 1hr
cm
rain 24hr
cm
rain mn
cm
humidity
%
barometer
mb
20260503211053 25 13 4.8 9.7 0.00 0.00 0.00 48 1013.4
20260503210547 25 338 3.2 8.0 0.00 0.00 0.00 47 1013.6
20260503210055 26 36 3.2 8.0 0.00 0.00 0.00 46 1013.6
20260503205548 26 326 3.2 8.0 0.00 0.00 0.00 47 1013.6
20260503205048 26 236 1.6 8.0 0.00 0.00 0.00 48 1013.7
20260503204559 26 333 1.6 8.0 0.00 0.00 0.00 49 1013.7
20260503204048 26 342 1.6 6.4 0.00 0.00 0.00 48 1013.8
20260503203548 26 356 1.6 6.4 0.00 0.00 0.00 49 1013.8
20260503203053 26 350 1.6 6.4 0.00 0.00 0.00 51 1014.0
20260503202550 26 94 3.2 6.4 0.00 0.00 0.00 48 1013.9
20260503202049 26 348 1.6 6.4 0.00 0.00 0.00 52 1013.9
20260503201555 26 304 3.2 6.4 0.00 0.00 0.00 52 1013.9
20260503201048 26 12 1.6 4.8 0.00 0.00 0.00 52 1014.0
20260503200548 26 168 1.6 8.0 0.00 0.00 0.00 53 1014.0
20260503200055 25 18 1.6 8.0 0.00 0.00 0.00 50 1014.1
20260503195548 26 55 3.2 8.0 0.00 0.00 0.00 52 1014.2
20260503195048 26 238 1.6 6.4 0.00 0.00 0.00 51 1014.3
20260503194555 26 20 1.6 6.4 0.00 0.00 0.00 55 1014.3
20260503194047 26 244 3.2 6.4 0.00 0.00 0.00 56 1014.3
20260503193547 26 277 1.6 6.4 0.00 0.00 0.00 54 1014.3
20260503193057 25 52 0.0 3.2 0.00 0.00 0.00 52 1014.4
20260503192547 25 338 1.6 6.4 0.00 0.00 0.00 55 1014.4
20260503192048 24 112 3.2 9.7 0.00 0.00 0.00 55 1014.6
20260503191551 24 304 3.2 9.7 0.00 0.00 0.00 54 1014.7
20260503191048 24 11 1.6 6.4 0.00 0.00 0.00 55 1014.7
20260503190549 24 351 0.0 6.4 0.00 0.00 0.00 55 1014.7
20260503190056 24 337 3.2 8.0 0.00 0.00 0.00 53 1014.9
20260503185548 24 56 1.6 8.0 0.00 0.00 0.00 57 1014.9
20260503185047 24 340 3.2 8.0 0.00 0.00 0.00 54 1014.8
20260503184603 24 283 1.6 6.4 0.00 0.00 0.00 60 1014.9
20260503184047 23 278 0.0 9.7 0.00 0.00 0.00 63 1014.9
20260503183547 23 63 3.2 9.7 0.00 0.00 0.00 58 1014.9
20260503183048 23 340 4.8 9.7 0.00 0.00 0.00 56 1015.1
20260503182548 22 46 4.8 9.7 0.00 0.00 0.00 58 1015.1
20260503182047 22 64 4.8 9.7 0.00 0.00 0.00 57 1015.2
20260503181559 22 89 4.8 9.7 0.00 0.00 0.00 57 1015.2
20260503181047 22 4 4.8 9.7 0.00 0.00 0.00 57 1015.3
20260503180547 22 4 3.2 9.7 0.00 0.00 0.00 59 1015.2
20260503180055 21 18 4.8 11.3 0.00 0.00 0.00 59 1015.3
20260503175548 21 56 4.8 11.3 0.00 0.00 0.00 59 1015.5
20260503175048 21 51 4.8 11.3 0.00 0.00 0.00 61 1015.5
20260503174606 21 47 8.0 11.3 0.00 0.00 0.00 62 1015.5
20260503174049 20 65 4.8 9.7 0.00 0.00 0.00 61 1015.5
20260503173548 20 51 4.8 12.9 0.00 0.00 0.00 64 1015.7
20260503173055 20 27 6.4 14.5 0.00 0.00 0.00 63 1015.6
20260503172549 20 79 6.4 14.5 0.00 0.00 0.00 63 1015.7
20260503172047 20 75 6.4 14.5 0.00 0.00 0.00 66 1015.8
20260503171554 20 34 8.0 12.9 0.00 0.00 0.00 68 1015.6
20260503171047 19 43 4.8 14.5 0.00 0.00 0.00 68 1015.9
20260503170547 19 107 8.0 14.5 0.00 0.00 0.00 68 1015.8
20260503150546 15 50 0.0 1.6 0.00 0.00 0.00 83 1016.1
20260503131047 10 0 0.0 1.6 0.00 0.00 0.00 94 1015.9
20260503130547 10 0 0.0 1.6 0.00 0.00 0.00 94 1015.9
20260503110547 11 0 0.0 1.6 0.00 0.00 0.00 91 1016.1
20260503100106 11 0 0.0 0.0 0.00 0.00 0.00 87 1016.2
20260503081556 12 0 0.0 0.0 0.00 0.00 0.00 84 1016.4
20260503081046 12 0 0.0 0.0 0.00 0.00 0.00 84 1016.4
20260503080549 12 0 0.0 0.0 0.00 0.00 0.00 83 1016.5
20260503072545 13 0 0.0 0.0 0.00 0.00 0.00 79 1016.4
20260503072050 14 0 0.0 0.0 0.00 0.00 0.00 78 1016.3
20260503071551 14 0 0.0 0.0 0.00 0.00 0.00 77 1016.3
20260503071045 15 0 0.0 0.0 0.00 0.00 0.00 77 1016.3
20260503070548 15 0 0.0 1.6 0.00 0.00 0.00 76 1016.3
20260503055045 18 0 0.0 1.6 0.00 0.00 0.00 57 1015.9
20260503054559 18 0 0.0 3.2 0.00 0.00 0.00 56 1015.9
20260503054045 18 39 1.6 3.2 0.00 0.00 0.00 56 1015.9
20260503053547 18 27 1.6 3.2 0.00 0.00 0.00 55 1015.8
20260503053053 19 14 1.6 3.2 0.00 0.00 0.00 55 1015.8
20260503052548 19 12 1.6 8.0 0.00 0.00 0.00 55 1015.9
20260503052047 19 28 1.6 8.0 0.00 0.00 0.00 55 1015.9
20260503051553 19 60 3.2 8.0 0.00 0.00 0.00 56 1015.8
20260503051047 18 1 1.6 4.8 0.00 0.00 0.00 57 1015.8
20260503050546 18 0 0.0 0.0 0.00 0.00 0.00 58 1015.8
20260503050055 18 0 0.0 0.0 0.00 0.00 0.00 58 1015.8
20260503045546 18 0 0.0 3.2 0.00 0.00 0.00 60 1015.7
20260503045046 18 0 0.0 3.2 0.00 0.00 0.00 60 1015.7
20260503044556 19 0 1.6 3.2 0.00 0.00 0.00 60 1015.6
20260503044046 19 0 0.0 3.2 0.00 0.00 0.00 60 1015.6
20260503043545 19 360 0.0 3.2 0.00 0.00 0.00 59 1015.5
20260503043117 19 16 1.6 3.2 0.00 0.00 0.00 59 1015.6
20260503042545 19 23 0.0 6.4 0.00 0.00 0.00 59 1015.5
20260503042045 19 8 3.2 6.4 0.00 0.00 0.00 60 1015.5
20260503041554 19 357 1.6 4.8 0.00 0.00 0.00 60 1015.5
20260503041047 19 16 1.6 4.8 0.00 0.00 0.00 60 1015.4
20260503040545 20 333 1.6 3.2 0.00 0.00 0.00 60 1015.2
20260503040051 20 350 0.0 6.4 0.00 0.00 0.00 60 1015.2
20260503035548 20 0 0.0 6.4 0.00 0.00 0.00 60 1015.0
20260503035048 20 16 1.6 6.4 0.00 0.00 0.00 60 1015.0
20260503034608 20 49 3.2 8.0 0.00 0.00 0.00 59 1014.9
20260503034046 20 8 3.2 8.0 0.00 0.00 0.00 59 1014.9
20260503033546 20 8 3.2 9.7 0.00 0.00 0.00 60 1014.9
20260503033056 20 39 3.2 9.7 0.00 0.00 0.00 59 1014.8
20260503032545 20 37 3.2 9.7 0.00 0.00 0.00 59 1014.9
20260503032045 21 25 6.4 9.7 0.00 0.00 0.00 59 1014.7
20260503031557 21 30 3.2 9.7 0.00 0.00 0.00 60 1014.6
20260503031046 21 73 1.6 6.4 0.00 0.00 0.00 61 1014.6
20260503030545 21 355 1.6 6.4 0.00 0.00 0.00 61 1014.6
20260503030057 21 12 0.0 4.8 0.00 0.00 0.00 60 1014.4
20260503025546 21 17 1.6 9.7 0.00 0.00 0.00 59 1014.5
20260503025045 21 30 3.2 9.7 0.00 0.00 0.00 59 1014.5
20260503024554 22 26 3.2 8.0 0.00 0.00 0.00 58 1014.4
20260503024047 22 19 1.6 11.3 0.00 0.00 0.00 58 1014.3
20260503023545 22 42 4.8 11.3 0.00 0.00 0.00 56 1014.2
20260503023056 22 30 3.2 11.3 0.00 0.00 0.00 57 1014.2
20260503022547 22 6 4.8 11.3 0.00 0.00 0.00 56 1014.3
20260503022050 22 21 3.2 9.7 0.00 0.00 0.00 56 1014.2
20260503021558 22 32 4.8 11.3 0.00 0.00 0.00 55 1014.3
20260503021046 22 6 4.8 11.3 0.00 0.00 0.00 55 1014.3
20260503020546 23 65 4.8 11.3 0.00 0.00 0.00 55 1014.3
20260503020055 23 4 6.4 12.9 0.00 0.00 0.00 54 1014.4
20260503015545 23 11 3.2 14.5 0.00 0.00 0.00 54 1014.3
20260503015047 23 27 4.8 14.5 0.00 0.00 0.00 54 1014.3
20260503014605 23 28 6.4 14.5 0.00 0.00 0.00 53 1014.4
20260503014046 23 27 4.8 14.5 0.00 0.00 0.00 53 1014.3
20260503013545 23 21 4.8 14.5 0.00 0.00 0.00 52 1014.4
20260503013056 23 355 6.4 14.5 0.00 0.00 0.00 53 1014.3
20260503012546 23 352 4.8 12.9 0.00 0.00 0.00 53 1014.4
20260503012046 23 4 6.4 12.9 0.00 0.00 0.00 53 1014.5
20260503011552 23 341 1.6 14.5 0.00 0.00 0.00 52 1014.6
20260503011048 23 24 8.0 14.5 0.00 0.00 0.00 52 1014.5
20260503010545 23 25 1.6 6.4 0.00 0.00 0.00 52 1014.5
20260503010053 23 343 3.2 12.9 0.00 0.00 0.00 52 1014.5
20260503005546 23 356 6.4 12.9 0.00 0.00 0.00 52 1014.6
20260503005046 23 342 3.2 14.5 0.00 0.00 0.00 52 1014.5
20260503004555 23 352 6.4 14.5 0.00 0.00 0.00 52 1014.6
20260503004047 23 5 4.8 16.1 0.00 0.00 0.00 52 1014.6
20260503003545 23 56 8.0 16.1 0.00 0.00 0.00 52 1014.7
20260503003104 23 15 6.4 12.9 0.00 0.00 0.00 52 1014.7
20260503002546 23 34 4.8 12.9 0.00 0.00 0.00 51 1014.7
20260503002045 24 32 6.4 12.9 0.00 0.00 0.00 51 1014.5
20260503001608 24 46 8.0 12.9 0.00 0.00 0.00 53 1014.6
20260503001045 23 26 8.0 12.9 0.00 0.00 0.00 52 1014.5
20260503000546 23 47 8.0 12.9 0.00 0.00 0.00 51 1014.6
20260503000055 24 352 6.4 12.9 0.00 0.00 0.00 51 1014.6
20260502235545 24 14 4.8 11.3 0.00 0.00 0.00 53 1014.6
20260502235047 24 221 4.8 8.0 0.00 0.00 0.00 51 1014.7
20260502234553 24 39 1.6 11.3 0.00 0.00 0.00 51 1014.8
20260502234047 24 346 4.8 11.3 0.00 0.00 0.00 50 1014.9
20260502233547 24 359 1.6 6.4 0.00 0.00 0.00 50 1015.0
20260502233051 24 19 1.6 6.4 0.00 0.00 0.00 51 1015.1
20260502232545 24 302 1.6 6.4 0.00 0.00 0.00 51 1015.0
20260502232046 24 33 1.6 6.4 0.00 0.00 0.00 51 1015.2
20260502231548 24 347 1.6 6.4 0.00 0.00 0.00 52 1015.2
20260502231047 23 49 3.2 9.7 0.00 0.00 0.00 57 1015.3
20260502230547 23 314 3.2 9.7 0.00 0.00 0.00 56 1015.3
20260502230053 23 318 1.6 9.7 0.00 0.00 0.00 56 1015.5
20260502225546 23 23 3.2 9.7 0.00 0.00 0.00 55 1015.5
20260502225045 23 66 3.2 9.7 0.00 0.00 0.00 57 1015.7
20260502224547 23 342 3.2 9.7 0.00 0.00 0.00 58 1015.7
20260502224045 23 352 3.2 9.7 0.00 0.00 0.00 56 1015.8
20260502223545 23 266 3.2 8.0 0.00 0.00 0.00 54 1015.7
20260502223051 23 0 0.0 6.4 0.00 0.00 0.00 56 1015.8
20260502222545 23 323 1.6 6.4 0.00 0.00 0.00 58 1016.0
20260502222048 23 333 1.6 8.0 0.00 0.00 0.00 59 1016.1
20260502221546 23 233 3.2 8.0 0.00 0.00 0.00 57 1016.0
20260502221047 23 264 1.6 8.0 0.00 0.00 0.00 57 1016.0
20260502220547 23 316 1.6 6.4 0.00 0.00 0.00 58 1016.1
20260502220052 23 314 1.6 6.4 0.00 0.00 0.00 59 1016.2
20260502215545 23 233 3.2 6.4 0.00 0.00 0.00 56 1016.1
20260502215045 23 53 1.6 11.3 0.00 0.00 0.00 58 1016.1
20260502214558 23 207 4.8 11.3 0.00 0.00 0.00 57 1016.2
20260502214046 23 238 3.2 9.7 0.00 0.00 0.00 56 1016.2
20260502213546 23 26 1.6 8.0 0.00 0.00 0.00 59 1016.3
20260502213051 23 351 1.6 8.0 0.00 0.00 0.00 59 1016.3
20260502212545 23 239 3.2 9.7 0.00 0.00 0.00 59 1016.4
20260502212046 22 209 1.6 9.7 0.00 0.00 0.00 60 1016.5
20260502211551 23 281 3.2 8.0 0.00 0.00 0.00 58 1016.4